EW8328 Weather Reports


time (UTC)temp
F
wind
direction
speed
knots
gust
knots
rain 1hr
in
rain 24hr
in
rain mn
in
humidity
%
barometer
mb
20260503021852 51 15 0.9 4.3 0.03 0.34 0.20 94 1008.5
20260503021352 51 357 1.7 4.3 0.03 0.33 0.20 94 1008.7
20260503020851 51 23 0.9 4.3 0.03 0.33 0.20 94 1008.7
20260503020351 51 9 1.7 5.2 0.04 0.33 0.20 94 1008.8
20260503015851 51 342 0.9 2.6 0.04 0.32 0.19 94 1008.8
20260503014851 51 343 1.7 2.6 0.05 0.32 0.19 94 1008.9
20260503013852 51 75 1.7 2.6 0.06 0.31 0.18 93 1009.0
20260503013351 51 14 2.6 7.0 0.06 0.31 0.18 93 1009.1
20260503012851 51 10 1.7 5.2 0.06 0.31 0.18 93 1009.1
20260503012351 51 22 1.7 5.2 0.07 0.31 0.18 93 1009.1
20260503011851 51 0 2.6 5.2 0.07 0.31 0.17 93 1009.2
20260503011351 51 355 1.7 2.6 0.07 0.30 0.17 93 1009.3
20260503010851 51 0 1.7 2.6 0.07 0.30 0.17 93 1009.3
20260503010352 51 24 1.7 6.1 0.07 0.29 0.16 93 1009.4
20260503005851 51 26 0.0 1.7 0.07 0.28 0.15 93 1009.5
20260503003851 51 14 1.7 4.3 0.07 0.26 0.13 93 1009.6
20260503003350 51 12 0.9 2.6 0.06 0.25 0.12 93 1009.7
20260503002852 51 358 1.7 11.3 0.07 0.25 0.12 93 1009.7
20260503002351 51 11 0.9 2.6 0.07 0.24 0.11 93 1009.7
20260503001851 51 354 2.6 5.2 0.07 0.24 0.10 93 1009.8
20260503001351 51 341 1.7 2.6 0.07 0.23 0.09 92 1009.9
20260503000351 51 8 0.9 4.3 0.08 0.22 0.09 92 1010.0
20260502235851 51 327 2.6 6.1 0.08 0.21 0.08 92 1010.0
20260502235352 51 2 1.7 6.1 0.08 0.20 0.07 92 1010.1
20260502234851 51 3 1.7 5.2 0.08 0.20 0.06 91 1010.1
20260502234352 51 11 1.7 5.2 0.08 0.20 0.06 91 1010.1
20260502233852 51 5 2.6 5.2 0.08 0.19 0.06 91 1010.1
20260502233351 52 5 1.7 6.1 0.08 0.19 0.06 91 1010.2
20260502232851 52 2 1.7 6.1 0.08 0.18 0.05 91 1010.3
20260502232351 52 14 1.7 5.2 0.07 0.17 0.04 91 1010.3
20260502231851 52 20 1.7 6.1 0.07 0.17 0.03 90 1010.4
20260502231350 52 19 2.6 6.1 0.06 0.16 0.02 90 1010.4
20260502230934 52 334 1.7 5.2 0.06 0.15 0.02 89 1010.5
20260502230351 52 352 0.9 2.6 0.06 0.14 0.01 89 1010.7
20260502225852 52 35 0.9 1.7 0.06 0.13 0.13 89 1010.7
20260502225352 52 338 0.9 2.6 0.06 0.13 0.13 89 1010.7
20260502224851 52 4 0.9 4.3 0.06 0.12 0.12 89 1010.7
20260502224351 52 9 1.7 4.3 0.06 0.12 0.12 88 1010.6
20260502222852 53 3 0.9 2.6 0.07 0.10 0.10 88 1010.6
20260502221851 53 24 0.9 2.6 0.07 0.09 0.09 88 1010.7
20260502221351 53 29 0.0 1.7 0.08 0.09 0.09 88 1010.8
20260502220852 53 74 0.0 1.7 0.07 0.09 0.09 88 1010.8
20260502220351 53 49 0.9 1.7 0.07 0.08 0.08 87 1010.9
20260502215852 53 53 0.9 1.7 0.07 0.08 0.08 88 1010.9
20260502215351 53 348 0.9 2.6 0.06 0.07 0.07 88 1011.0
20260502214352 53 81 0.0 2.6 0.06 0.06 0.06 88 1011.2
20260502213851 53 90 0.9 1.7 0.05 0.05 0.05 88 1011.2
20260502213351 53 108 0.9 2.6 0.04 0.04 0.04 87 1011.2
20260502212351 54 100 0.9 1.7 0.02 0.02 0.02 87 1011.2
20260502211851 54 100 0.9 2.6 0.02 0.02 0.02 86 1011.3
20260502211350 54 146 0.9 2.6 0.02 0.02 0.02 84 1011.3
20260502210851 54 331 0.9 4.3 0.02 0.02 0.02 84 1011.2
20260502210352 54 322 0.9 2.6 0.01 0.01 0.01 83 1011.3
20260502205851 54 338 0.9 2.6 0.01 0.01 0.01 82 1011.4
20260502205351 54 316 0.9 2.6 0.01 0.01 0.01 81 1011.4
20260502204851 54 342 0.9 1.7 0.01 0.01 0.01 80 1011.4
20260502204351 55 342 0.0 0.9 0.00 0.00 0.00 80 1011.5
20260502203852 55 342 0.9 1.7 0.00 0.00 0.00 79 1011.6
20260502203351 55 313 0.0 0.9 0.00 0.00 0.00 79 1011.6
20260502202851 55 313 0.0 1.7 0.00 0.00 0.00 78 1011.6
20260502201851 56 313 0.0 1.7 0.00 0.00 0.00 75 1011.6
20260502201352 56 313 0.9 1.7 0.00 0.00 0.00 75 1011.6
20260502200851 56 313 0.0 1.7 0.00 0.00 0.00 74 1011.6
20260502195851 57 313 0.0 1.7 0.00 0.00 0.00 72 1011.5
20260502195351 57 313 0.0 1.7 0.00 0.00 0.00 72 1011.5
20260502194852 57 313 0.0 0.9 0.00 0.00 0.00 72 1011.5
20260502194351 57 313 0.9 1.7 0.00 0.00 0.00 72 1011.4
20260502193851 57 313 0.0 1.7 0.00 0.00 0.00 71 1011.4
20260502193351 57 313 0.9 1.7 0.00 0.00 0.00 71 1011.4
20260502192851 57 313 0.0 1.7 0.00 0.00 0.00 71 1011.4
20260502192352 56 313 0.0 1.7 0.00 0.00 0.00 72 1011.3
20260502191851 56 313 0.9 1.7 0.00 0.00 0.00 72 1011.3
20260502191351 56 343 0.9 2.6 0.00 0.00 0.00 72 1011.3
20260502190852 56 321 0.9 2.6 0.00 0.00 0.00 73 1011.3
20260502190351 56 351 1.7 2.6 0.00 0.00 0.00 73 1011.3
20260502185851 57 331 0.9 2.6 0.00 0.00 0.00 73 1011.4
20260502185351 57 316 0.9 2.6 0.00 0.00 0.00 73 1011.4
20260502184851 57 333 0.9 1.7 0.00 0.00 0.00 72 1011.4
20260502184351 57 333 0.9 1.7 0.00 0.00 0.00 71 1011.4
20260502183851 58 333 0.0 0.9 0.00 0.00 0.00 72 1011.5
20260502183351 58 326 0.9 2.6 0.00 0.00 0.00 71 1011.5
20260502182851 58 358 0.9 2.6 0.00 0.00 0.00 70 1011.6
20260502182350 58 344 0.0 2.6 0.00 0.00 0.00 70 1011.6
20260502181851 58 313 0.0 0.0 0.00 0.00 0.00 71 1011.7
20260502181350 58 313 0.0 0.9 0.00 0.00 0.00 70 1011.7
20260502180851 58 313 0.0 1.7 0.00 0.00 0.00 71 1011.7
20260502180351 58 313 0.0 1.7 0.00 0.00 0.00 71 1011.8
20260502170351 60 304 1.7 2.6 0.00 0.00 0.00 67 1011.9
20260502163851 61 291 0.9 2.6 0.00 0.00 0.00 66 1012.2
20260502163351 61 316 0.9 1.7 0.00 0.00 0.00 65 1012.3
20260502162851 61 290 0.9 1.7 0.00 0.00 0.00 64 1012.4
20260502162351 61 314 0.9 2.6 0.00 0.00 0.00 64 1012.4
20260502161851 61 285 0.9 2.6 0.00 0.00 0.00 64 1012.3
20260502161350 62 311 1.7 2.6 0.00 0.00 0.00 62 1012.4
20260502160351 62 292 0.9 4.3 0.00 0.00 0.00 64 1012.6
20260502151851 62 319 0.9 2.6 0.00 0.00 0.00 63 1012.9
20260502151351 62 286 1.7 2.6 0.00 0.00 0.00 63 1013.1
20260502150851 62 351 0.9 2.6 0.00 0.00 0.00 63 1013.1
20260502150350 62 323 1.7 2.6 0.00 0.00 0.00 63 1013.3
20260502130350 59 283 2.6 7.8 0.00 0.00 0.00 67 1014.2
20260502123351 58 302 1.7 4.3 0.00 0.00 0.00 73 1014.6
20260502122851 57 263 2.6 5.2 0.00 0.00 0.00 74 1014.6
20260502122351 56 248 2.6 5.2 0.00 0.00 0.00 74 1014.9
20260502121851 56 309 1.7 5.2 0.00 0.00 0.00 77 1015.0
20260502121350 55 290 0.9 2.6 0.00 0.00 0.00 78 1015.0
20260502120850 55 289 1.7 6.1 0.00 0.00 0.00 77 1015.3
20260502115850 55 260 2.6 7.0 0.00 0.00 0.00 76 1015.3
20260502115350 55 293 1.7 6.1 0.00 0.00 0.00 76 1015.4
20260502114851 55 259 2.6 6.1 0.00 0.00 0.00 77 1015.4
20260502113851 55 238 1.7 6.1 0.00 0.00 0.00 74 1015.3
20260502113350 55 222 4.3 7.0 0.00 0.00 0.00 75 1015.2
20260502112850 55 218 4.3 7.0 0.00 0.00 0.00 77 1015.2
20260502112350 55 240 2.6 5.2 0.00 0.00 0.00 78 1015.1
20260502111851 55 265 2.6 5.2 0.00 0.00 0.00 79 1015.1
20260502111351 54 245 2.6 5.2 0.00 0.00 0.00 79 1015.1
20260502110351 55 260 2.6 7.0 0.00 0.00 0.00 81 1015.1
20260502105851 54 251 2.6 5.2 0.00 0.00 0.00 80 1015.0
20260502105350 55 276 2.6 5.2 0.00 0.00 0.00 81 1015.2
20260502104850 54 254 2.6 6.1 0.00 0.00 0.00 82 1015.2
20260502104350 54 294 0.9 2.6 0.00 0.00 0.00 83 1015.3
20260502103851 54 248 1.7 4.3 0.00 0.00 0.00 83 1015.3
20260502103351 54 268 1.7 4.3 0.00 0.00 0.00 83 1015.3
20260502102851 53 250 2.6 6.1 0.00 0.00 0.00 84 1015.4
20260502102351 53 248 1.7 4.3 0.00 0.00 0.00 84 1015.5
20260502101850 53 260 2.6 7.0 0.00 0.00 0.00 83 1015.6
20260502101350 54 256 1.7 5.2 0.00 0.00 0.00 83 1015.4
20260502100851 53 304 1.7 2.6 0.00 0.00 0.00 83 1015.4
20260502091351 52 274 1.7 4.3 0.00 0.00 0.00 85 1015.7
20260502090850 52 295 1.7 2.6 0.00 0.00 0.00 85 1015.8
20260502090350 52 288 1.7 4.3 0.00 0.00 0.00 86 1015.8
20260502071350 50 273 0.9 2.6 0.00 0.00 0.00 88 1015.7
20260502070851 50 256 1.7 2.6 0.00 0.00 0.00 88 1015.7
20260502070350 50 270 0.9 2.6 0.00 0.00 0.00 88 1015.7
20260502065850 50 244 0.9 2.6 0.00 0.00 0.00 88 1015.7
20260502065350 50 261 0.9 1.7 0.00 0.00 0.00 88 1015.7
20260502063850 50 237 1.7 4.3 0.00 0.00 0.00 88 1015.7
20260502063350 50 254 1.7 2.6 0.00 0.00 0.00 89 1015.6
20260502062350 50 251 0.9 5.2 0.00 0.00 0.00 89 1015.5
20260502061850 50 267 1.7 2.6 0.00 0.00 0.00 89 1015.5
20260502061351 50 251 2.6 4.3 0.00 0.00 0.00 89 1015.6
20260502060850 50 264 1.7 5.2 0.00 0.00 0.00 89 1015.6
20260502060350 50 255 2.6 6.1 0.00 0.00 0.00 89 1015.6
20260502055851 50 263 1.7 2.6 0.00 0.00 0.00 89 1015.6
20260502055350 50 274 1.7 6.1 0.00 0.00 0.00 88 1015.6
20260502054350 50 273 1.7 2.6 0.00 0.00 0.00 88 1015.6
20260502053851 50 264 1.7 2.6 0.00 0.00 0.00 88 1015.6
20260502052850 50 263 1.7 5.2 0.00 0.00 0.00 88 1015.6
20260502051850 50 247 2.6 7.0 0.00 0.00 0.00 88 1015.6
20260502051350 50 260 3.5 7.8 0.00 0.00 0.00 88 1015.6
20260502050850 50 255 3.5 10.4 0.00 0.00 0.00 88 1015.6
20260502045851 50 273 4.3 7.8 0.00 0.00 0.00 88 1015.6
20260502044850 50 227 1.7 4.3 0.00 0.00 0.00 88 1015.6
20260502044350 50 277 0.9 2.6 0.00 0.00 0.00 88 1015.6
20260502043850 50 229 0.9 2.6 0.00 0.00 0.00 88 1015.6
20260502043350 50 207 0.9 1.7 0.00 0.00 0.00 88 1015.5
20260502042850 50 256 0.9 1.7 0.00 0.00 0.00 88 1015.6
20260502042350 50 263 0.9 2.6 0.00 0.00 0.00 88 1015.6
20260502041851 50 226 0.9 2.6 0.00 0.00 0.00 88 1015.6
20260502041350 50 264 1.7 2.6 0.00 0.00 0.00 88 1015.7
20260502040850 50 246 1.7 4.3 0.00 0.00 0.00 88 1015.6
20260502040350 50 265 1.7 5.2 0.00 0.00 0.00 88 1015.7
20260502035850 50 289 0.9 2.6 0.00 0.00 0.00 88 1015.7
20260502035350 50 284 0.9 2.6 0.00 0.00 0.00 88 1015.7
20260502034850 50 294 0.0 2.6 0.00 0.00 0.00 88 1015.7
20260502034350 50 268 0.9 2.6 0.00 0.00 0.00 89 1015.7
20260502033850 50 260 1.7 2.6 0.00 0.00 0.00 89 1015.7
20260502033350 50 302 0.9 2.6 0.00 0.00 0.00 89 1015.7
20260502032850 50 286 1.7 2.6 0.00 0.00 0.00 89 1015.7
20260502032350 50 230 0.9 2.6 0.00 0.00 0.00 90 1015.6
20260502031350 49 252 1.7 2.6 0.00 0.00 0.00 90 1015.6
20260502030350 49 272 0.9 2.6 0.00 0.00 0.00 90 1015.6
20260502025850 49 272 0.9 2.6 0.00 0.00 0.00 90 1015.6
20260502025350 49 269 0.9 2.6 0.00 0.00 0.00 90 1015.5
20260502024850 49 298 1.7 2.6 0.00 0.00 0.00 90 1015.5
20260502024349 49 291 0.9 2.6 0.00 0.00 0.00 90 1015.6
20260502023350 49 268 0.9 2.6 0.00 0.00 0.00 90 1015.6
20260502022850 49 285 1.7 2.6 0.00 0.00 0.00 90 1015.6
20260502022351 49 275 0.9 2.6 0.00 0.00 0.00 90 1015.7